Starlink 31446

operational
NORAD ID: 59315 Int'l Des: 2024-056 Owner: SPXS Country: US Constellation: starlink
LEOCIRCULAR

About Starlink 31446

Description loading...

Live Position

Loading 3D Globe...

Upcoming Passes

Altitude History

Altitude vs Time

uPlot chart will show altitude changes over time

Two-Line Element Set

1 59315U 24056V 25304.85285928 -.00003974 00000-0 -13518-3 0 9997
2 59315 43.0006 238.0316 0000986 308.0246 52.0517 15.27535339 91459
Epoch: Oct 31, 2025 • Age: 20 hours

Current Status

Altitude 494.3 km
Velocity 7.62 km/s
Sub-Earth Point -38.37°S, 175.79°W
Launch Date Mar 24, 2024
Age 1.6 years
Type internet

Technical Details

Classification Payload
Mass 730.00 kg
Dry Mass 700.00 kg
Total Mass 730.00 kg
Length 0.30 m
Diameter 4.10 m
Span 29.00 m
Shape Box + pan
Manufacturer SPXS
Bus Type Starlink V2M
Phase Status In Orbit
Owner/State SPXS/US

Large Constellations

Loading constellations...